STARLINK-1919 (46769 NORAD) Tracking and Keplerian Element Data

This shows tracking and keplerian element data for the satellite.

Feedback or suggestion? Click here.




ElementValue
Catalog46769
NameSTARLINK-1919
Epoch Orbit175
Epoch Day14.91667824
Epoch Year2021
RAAN135.2391
Inclination53.0548
Eccentricity0.0001704
Argument of Perigee83.0524
Mean Anonmoly93.1926
Mean Motion15.06417723
Decay Rate-0.00019966
L11 46769U 20074AG 21014.91667824 -.00019966 00000-0 -13246-2 0 9997
L22 46769 53.0548 135.2391 0001704 83.0524 93.1926 15.06417723 1756

Live tracking and technical data element details for STARLINK-1919 (NORAD 46769). STARLINK-1919 can be tracked NOW for your location showing map with azimuth and elevation plus other details from your city location.

Track the satellite on the map from your city or location and see movement details for azimuth, elevation, latitude, longitude, range, height, and movement on the map or in text.







IsCatalogInMostPopularTable: catalog: 46769, numindb: 28
Update: records affected: 1



GetName: 46769 STARLINK-1919

Hit Count: updated at: Fri, 15 Jan 2021 23:16:02 GMT